Location: La Pernelle
(49.6188°N, 1.2999°W)
Time: 09:34:25
(UTC+00:00)

Meteor 2-20 - Pass Details

Date: 26 October 2021
Orbit: 939 x 958 km, 82.5° (Epoch: 08 December)

Event Time Altitude Azimuth Distance (km) Brightness Sun altitude
Rises 17:16:52 0° 343° (NNW) 3,615 7.5 -4.5°
Reaches altitude 10° 17:19:36 10° 334° (NNW) 2,666 7.0 -4.9°
Maximum altitude 17:24:52 32° 274° (W) 1,563 6.5 -5.8°
Drops below altitude 10° 17:30:07 10° 213° (SSW) 2,654 7.5 -6.6°
Sets 17:32:50 0° 204° (SSW) 3,596 8.0 -7.0°
